Regional Weather Roundup
Issued by NWS

Home | Current Version | Previous Version | Graphics & Text | Print | Product List | Glossary On
Versions: 1 2 3 4 5 6 7 8 9 10 11 12 13 14 15 16 17 18 19 20 21 22 23 24 25 26 27 28
000
ASUS45 KCYS 071210
RWRWY

WYOMING REGIONAL WEATHER ROUNDUP
NATIONAL WEATHER SERVICE CHEYENNE WY
500 AM MST WED DEC 07 2016

NOTE:  "FAIR" INDICATES FEW OR NO CLOUDS BELOW 12,000 FEET
WITH NO SIGNIFICANT WEATHER AND/OR OBSTRUCTIONS TO VISIBILITY.

WYZ001-071300-
YELLOWSTONE NATIONAL PARK

CITY           SKY/WX    TMP DP  RH WIND       PRES   REMARKS
LK YELLOWSTONE   N/A     -5 -10  79 N5        29.92R WCI -16
6HR MIN TEMP: -10; 6HR MAX TEMP:   2;

W YELLOWSTONE  NOT AVBL

$$
WYZ002>013-054>058-071-098>099-071300-
NORTHERN WYOMING

CITY           SKY/WX    TMP DP  RH WIND       PRES   REMARKS
JACKSON        CLOUDY    -9 -11  92 NE5       29.99R WCI -21
CODY           FAIR      -3  -7  82 NE6       30.16R WCI -15
GREYBULL       FAIR       5  -2  72 NW13      30.21R WCI -12
6HR MIN TEMP:   5; 6HR MAX TEMP:  12;

WORLAND        LGT SNOW   8   3  80 NW10      30.20R WCI  -6
6HR MIN TEMP:   8; 6HR MAX TEMP:  11; 6HR PCP: TRACE;

SHERIDAN       CLOUDY     1  -6  72 NW13      30.27R WCI -17
6HR MIN TEMP:   0; 6HR MAX TEMP:   8;

BUFFALO        CLOUDY    -1  -8  72 NW14G21   30.16R WCI -20
6HR MIN TEMP:  -2; 6HR MAX TEMP:   4; 6HR PCP: TRACE;

GILLETTE       CLOUDY    -1  -4  87 NW12      30.20R WCI -18
6HR MIN TEMP:  -7; 6HR MAX TEMP:   2;

HULETT         CLOUDY     1  -4  78 NW3       30.20R
NEWCASTLE      FAIR       1  -6  71 NW15      30.16S WCI -18

$$
WYZ014>020-022>026-101>103-071300-
CENTRAL WYOMING

CITY           SKY/WX    TMP DP  RH WIND       PRES   REMARKS
BIG PINEY      FAIR       0  -4  83 CALM      29.94R
6HR MIN TEMP:  -3; 6HR MAX TEMP:   2; 6HR PCP: TRACE;

PINEDALE       LGT SNOW   3   1  92 NE6       29.93R WCI  -8
DUBOIS         CLOUDY    -6 -11  77 NW7       29.93R WCI -20
LANDER         LGT SNOW   5   2  87 CALM      30.06R FOG
6HR MIN TEMP:   4; 6HR MAX TEMP:   7; 6HR PCP:  0.04;

RIVERTON       LGT SNOW   4   1  88 CALM      30.09R FOG
6HR MIN TEMP:   3; 6HR MAX TEMP:   6; 6HR PCP:  0.01;

CASPER         LGT SNOW  -4  -8  83 CALM      30.10R FOG
6HR MIN TEMP: -11; 6HR MAX TEMP:   4; 6HR PCP:  0.01;

DOUGLAS        MOCLDY    -2  -8  76 NW3       30.14R
6HR MIN TEMP:  -2; 6HR MAX TEMP:   6; 6HR PCP: TRACE;


$$
WYZ021-027>030-104>119-071300-
SOUTHERN WYOMING

CITY           SKY/WX    TMP DP  RH WIND       PRES   REMARKS
EVANSTON       FAIR       6  -1  73 W10       29.95R WCI  -9
6HR MIN TEMP:   3; 6HR MAX TEMP:   8;

FORT BRIDGER   FAIR       1  -3  80 W7        29.97R WCI -11
ROCK SPRINGS   LGT SNOW   5   2  87 NE7       29.94R FOG     WCI  -7
6HR MIN TEMP:   5; 6HR MAX TEMP:   9; 6HR PCP: TRACE;

DIXON          PTSUNNY    6   1  78 CALM      29.97R
RAWLINS        CLOUDY     2  -4  76 N5        29.93R WCI  -8
6HR MIN TEMP:  -3; 6HR MAX TEMP:   4; 6HR PCP: TRACE;

SARATOGA       LGT SNOW   3   0  85 NW5       29.92R WCI  -6
LARAMIE        MOCLDY    -4  -8  83 NW10      29.85R WCI -21
6HR MIN TEMP:  -4; 6HR MAX TEMP:  10; 6HR PCP: TRACE;

CHEYENNE       LGT SNOW   1  -4  79 N13G22    29.97R WCI -17
6HR MIN TEMP:   1; 6HR MAX TEMP:  12; 6HR PCP:  0.05;

TORRINGTON     LGT SNOW   6   0  76 N12G20    30.15R WCI  -9
6HR MIN TEMP:   6; 6HR MAX TEMP:  11; 6HR PCP: TRACE;

PINE BLUFFS    CLOUDY     7   3  85 N16       30.05R WCI -11

$$




USA.gov is the U.S. government's official web portal to all federal, state and local government web resources and services.